Terminal Aerodrome Forecast
Issued by NWS

Home | Current Version | Previous Version | Text Only | Print | Product List | Glossary On
Versions: 1 2 3 4 5 6 7 8 9 10 11 12
000
FTUS44 KJAN 301100
TAFGTR
TAF
KGTR 301120Z 3012/3112 01005KT P6SM SCT250
     FM310000 01003KT P6SM BKN250=

USA.gov is the U.S. government's official web portal to all federal, state and local government web resources and services.